| time (UTC) | temp F | wind direction | speed MPH | gust MPH | rain 1hr in | rain 24hr in | rain mn in | humidity % | barometer mb |
| 20260906140025 | 80 | 212 | 1.0 | 5.0 | 0.00 | 0.00 | 0.00 | 82 | 1013.8 |
| 20260906134520 | 80 | 169 | 0.0 | 7.0 | 0.00 | 0.00 | 0.00 | 82 | 1013.8 |
| 20260906133019 | 79 | 149 | 3.0 | 7.0 | 0.00 | 0.00 | 0.00 | 84 | 1013.7 |
| 20260906131517 | 78 | 155 | 2.0 | 7.0 | 0.00 | 0.00 | 0.00 | 84 | 1013.7 |
| 20260906130014 | 76 | 136 | 1.0 | 4.0 | 0.00 | 0.00 | 0.00 | 86 | 1013.6 |
| 20260906124513 | 76 | 113 | 0.0 | 2.0 | 0.00 | 0.00 | 0.00 | 86 | 1012.8 |
| 20260906123012 | 76 | 167 | 0.0 | 2.0 | 0.00 | 0.00 | 0.00 | 86 | 1012.9 |
| 20260906121512 | 76 | 96 | 1.0 | 2.0 | 0.00 | 0.00 | 0.00 | 86 | 1012.8 |
| 20260906120011 | 76 | 120 | 0.0 | 1.0 | 0.00 | 0.00 | 0.00 | 86 | 1012.5 |
| 20260906114508 | 76 | 117 | 1.0 | 2.0 | 0.00 | 0.00 | 0.00 | 85 | 1012.4 |
| 20260906113007 | 76 | 58 | 0.0 | 1.0 | 0.00 | 0.00 | 0.00 | 84 | 1012.1 |
| 20260906111507 | 77 | 58 | 0.0 | 2.0 | 0.00 | 0.00 | 0.00 | 83 | 1011.8 |
| 20260906110005 | 77 | 255 | 0.0 | 1.0 | 0.00 | 0.00 | 0.00 | 83 | 1011.7 |
| 20260906104506 | 77 | 255 | 0.0 | 1.0 | 0.00 | 0.00 | 0.00 | 83 | 1011.5 |
| 20260906103006 | 77 | 255 | 0.0 | 1.0 | 0.00 | 0.00 | 0.00 | 83 | 1011.2 |
| 20260906101502 | 77 | 184 | 0.0 | 4.0 | 0.00 | 0.00 | 0.00 | 83 | 1011.4 |
| 20260906100005 | 77 | 222 | 0.0 | 3.0 | 0.00 | 0.00 | 0.00 | 82 | 1011.5 |
| 20260906094601 | 77 | 229 | 1.0 | 4.0 | 0.00 | 0.00 | 0.00 | 82 | 1011.6 |
| 20260906093101 | 77 | 208 | 1.0 | 8.0 | 0.00 | 0.00 | 0.00 | 82 | 1011.6 |
| 20260906091559 | 77 | 238 | 2.0 | 4.0 | 0.00 | 0.00 | 0.00 | 82 | 1011.6 |
| 20260906090058 | 78 | 246 | 1.0 | 6.0 | 0.00 | 0.00 | 0.00 | 82 | 1011.5 |
| 20260906084556 | 78 | 205 | 1.0 | 6.0 | 0.00 | 0.00 | 0.00 | 81 | 1011.5 |
| 20260906083059 | 78 | 200 | 3.0 | 6.0 | 0.00 | 0.00 | 0.00 | 81 | 1011.5 |
| 20260906081554 | 78 | 222 | 2.0 | 6.0 | 0.00 | 0.00 | 0.00 | 80 | 1011.8 |
| 20260906080052 | 79 | 214 | 3.0 | 8.0 | 0.00 | 0.00 | 0.00 | 79 | 1011.9 |
| 20260906074547 | 79 | 180 | 5.0 | 10.0 | 0.00 | 0.00 | 0.00 | 78 | 1012.0 |
| 20260906073045 | 79 | 214 | 4.0 | 8.0 | 0.00 | 0.00 | 0.00 | 77 | 1012.3 |
| 20260906071543 | 79 | 229 | 3.0 | 7.0 | 0.00 | 0.00 | 0.00 | 76 | 1012.3 |
| 20260906070040 | 80 | 167 | 3.0 | 8.0 | 0.00 | 0.00 | 0.00 | 76 | 1012.4 |
| 20260906064542 | 80 | 192 | 2.0 | 8.0 | 0.00 | 0.00 | 0.00 | 75 | 1012.6 |
| 20260906063037 | 80 | 185 | 3.0 | 7.0 | 0.00 | 0.00 | 0.00 | 75 | 1012.7 |
| 20260906061534 | 81 | 197 | 4.0 | 7.0 | 0.00 | 0.00 | 0.00 | 74 | 1012.8 |
| 20260906060034 | 81 | 162 | 4.0 | 8.0 | 0.00 | 0.00 | 0.00 | 74 | 1013.0 |
| 20260906054537 | 81 | 217 | 5.0 | 9.0 | 0.00 | 0.00 | 0.00 | 73 | 1012.8 |
| 20260906053029 | 82 | 117 | 4.0 | 10.0 | 0.00 | 0.00 | 0.00 | 72 | 1012.8 |
| 20260906051527 | 82 | 193 | 5.0 | 10.0 | 0.00 | 0.00 | 0.00 | 71 | 1012.8 |
| 20260906050025 | 83 | 158 | 7.0 | 13.0 | 0.00 | 0.00 | 0.00 | 69 | 1012.9 |
| 20260906044523 | 83 | 182 | 4.0 | 10.0 | 0.00 | 0.00 | 0.00 | 68 | 1012.9 |
| 20260906043025 | 83 | 106 | 5.0 | 13.0 | 0.00 | 0.00 | 0.00 | 67 | 1013.1 |
| 20260906041523 | 83 | 160 | 3.0 | 10.0 | 0.00 | 0.00 | 0.00 | 67 | 1013.0 |
| 20260906040022 | 84 | 158 | 4.0 | 9.0 | 0.00 | 0.00 | 0.00 | 67 | 1012.9 |
| 20260906034521 | 84 | 131 | 5.0 | 15.0 | 0.00 | 0.00 | 0.00 | 66 | 1012.9 |
| 20260906033021 | 85 | 159 | 5.0 | 12.0 | 0.00 | 0.00 | 0.00 | 64 | 1012.9 |
| 20260906031519 | 85 | 130 | 6.0 | 13.0 | 0.00 | 0.00 | 0.00 | 63 | 1012.5 |
| 20260906030019 | 86 | 122 | 6.0 | 15.0 | 0.00 | 0.00 | 0.00 | 60 | 1012.2 |
| 20260906024518 | 87 | 157 | 6.0 | 13.0 | 0.00 | 0.00 | 0.00 | 58 | 1011.8 |
| 20260906023018 | 87 | 122 | 5.0 | 12.0 | 0.00 | 0.00 | 0.00 | 56 | 1011.4 |
| 20260906021533 | 88 | 171 | 3.0 | 9.0 | 0.00 | 0.00 | 0.00 | 55 | 1011.2 |
| 20260906020020 | 88 | 129 | 5.0 | 10.0 | 0.00 | 0.00 | 0.00 | 54 | 1011.0 |
| 20260906014520 | 89 | 140 | 3.0 | 11.0 | 0.00 | 0.00 | 0.00 | 53 | 1010.8 |
| 20260906013032 | 90 | 94 | 3.0 | 9.0 | 0.00 | 0.00 | 0.00 | 50 | 1010.6 |
| 20260906011515 | 90 | 131 | 5.0 | 11.0 | 0.00 | 0.00 | 0.00 | 49 | 1010.6 |
| 20260906010017 | 91 | 98 | 8.0 | 15.0 | 0.00 | 0.00 | 0.00 | 47 | 1010.5 |
| 20260906004514 | 93 | 134 | 4.0 | 13.0 | 0.00 | 0.00 | 0.00 | 43 | 1010.5 |
| 20260906003019 | 94 | 125 | 2.0 | 7.0 | 0.00 | 0.00 | 0.00 | 39 | 1010.3 |
| 20260906001514 | 95 | 221 | 2.0 | 8.0 | 0.00 | 0.00 | 0.00 | 39 | 1010.2 |
| 20260906000011 | 95 | 207 | 4.0 | 8.0 | 0.00 | 0.00 | 0.00 | 38 | 1010.3 |
| 20260905234510 | 95 | 141 | 4.0 | 11.0 | 0.00 | 0.00 | 0.00 | 38 | 1010.3 |
| 20260905233014 | 96 | 174 | 2.0 | 9.0 | 0.00 | 0.00 | 0.00 | 38 | 1010.2 |
| 20260905231508 | 95 | 150 | 6.0 | 9.0 | 0.00 | 0.00 | 0.00 | 38 | 1010.2 |
| 20260905230008 | 96 | 127 | 1.0 | 10.0 | 0.00 | 0.00 | 0.00 | 38 | 1010.3 |
| 20260905224513 | 96 | 88 | 3.0 | 6.0 | 0.00 | 0.00 | 0.00 | 38 | 1010.2 |
| 20260905223005 | 95 | 86 | 3.0 | 7.0 | 0.00 | 0.00 | 0.00 | 38 | 1010.2 |
| 20260905221503 | 95 | 86 | 3.0 | 10.0 | 0.00 | 0.00 | 0.00 | 39 | 1010.4 |
| 20260905220002 | 96 | 135 | 3.0 | 8.0 | 0.00 | 0.00 | 0.00 | 39 | 1010.5 |
| 20260905214601 | 96 | 153 | 3.0 | 8.0 | 0.00 | 0.00 | 0.00 | 38 | 1010.5 |
| 20260905213105 | 96 | 139 | 2.0 | 10.0 | 0.00 | 0.00 | 0.00 | 39 | 1010.6 |
| 20260905211609 | 97 | 136 | 2.0 | 11.0 | 0.00 | 0.00 | 0.00 | 39 | 1010.5 |
| 20260905210109 | 96 | 191 | 4.0 | 9.0 | 0.00 | 0.00 | 0.00 | 39 | 1010.7 |
| 20260905204553 | 96 | 179 | 5.0 | 10.0 | 0.00 | 0.00 | 0.00 | 40 | 1011.0 |
| 20260905203050 | 96 | 169 | 6.0 | 12.0 | 0.00 | 0.00 | 0.00 | 40 | 1011.3 |
| 20260905201547 | 95 | 229 | 4.0 | 11.0 | 0.00 | 0.00 | 0.00 | 41 | 1011.5 |
| 20260905200049 | 94 | 297 | 1.0 | 6.0 | 0.00 | 0.00 | 0.00 | 43 | 1011.8 |
| 20260905194544 | 93 | 149 | 3.0 | 11.0 | 0.00 | 0.00 | 0.00 | 42 | 1012.2 |
| 20260905193039 | 92 | 251 | 0.0 | 6.0 | 0.00 | 0.00 | 0.00 | 44 | 1012.3 |
| 20260905191541 | 94 | 140 | 7.0 | 12.0 | 0.00 | 0.00 | 0.00 | 42 | 1012.6 |
| 20260905190046 | 93 | 98 | 2.0 | 14.0 | 0.00 | 0.00 | 0.00 | 45 | 1012.8 |
| 20260905184540 | 92 | 274 | 3.0 | 14.0 | 0.00 | 0.00 | 0.00 | 47 | 1013.1 |
| 20260905183032 | 93 | 173 | 2.0 | 10.0 | 0.00 | 0.00 | 0.00 | 45 | 1013.3 |
| 20260905181531 | 92 | 118 | 5.0 | 12.0 | 0.00 | 0.00 | 0.00 | 44 | 1013.6 |
| 20260905180030 | 91 | 99 | 3.0 | 12.0 | 0.00 | 0.00 | 0.00 | 48 | 1013.9 |
| 20260905174529 | 92 | 146 | 6.0 | 13.0 | 0.00 | 0.00 | 0.00 | 48 | 1014.1 |
| 20260905173027 | 90 | 235 | 4.0 | 11.0 | 0.00 | 0.00 | 0.00 | 52 | 1014.4 |
| 20260905171537 | 91 | 238 | 2.0 | 7.0 | 0.00 | 0.00 | 0.00 | 56 | 1014.5 |
| 20260905170022 | 89 | 239 | 5.0 | 11.0 | 0.00 | 0.00 | 0.00 | 55 | 1014.6 |
| 20260905164522 | 89 | 155 | 6.0 | 11.0 | 0.00 | 0.00 | 0.00 | 56 | 1014.7 |
| 20260905163020 | 89 | 174 | 5.0 | 13.0 | 0.00 | 0.00 | 0.00 | 57 | 1014.8 |
| 20260905161517 | 87 | 200 | 5.0 | 11.0 | 0.00 | 0.00 | 0.00 | 62 | 1014.8 |
| 20260905160118 | 87 | 178 | 3.0 | 8.0 | 0.00 | 0.00 | 0.00 | 65 | 1014.7 |
| 20260905154514 | 86 | 212 | 3.0 | 8.0 | 0.00 | 0.00 | 0.00 | 65 | 1014.8 |
| 20260905153011 | 85 | 184 | 3.0 | 10.0 | 0.00 | 0.00 | 0.00 | 70 | 1014.6 |
| 20260905151511 | 83 | 212 | 2.0 | 8.0 | 0.00 | 0.00 | 0.00 | 77 | 1014.7 |
| 20260905150004 | 82 | 217 | 3.0 | 8.0 | 0.00 | 0.00 | 0.00 | 78 | 1014.8 |
| 20260905144504 | 81 | 198 | 2.0 | 9.0 | 0.00 | 0.00 | 0.00 | 82 | 1014.6 |
| 20260905143100 | 80 | 212 | 5.0 | 9.0 | 0.00 | 0.00 | 0.00 | 83 | 1014.6 |
| 20260905141607 | 80 | 158 | 5.0 | 9.0 | 0.00 | 0.00 | 0.00 | 85 | 1014.7 |